When you browse on this site, cookies collect data to enhance your experience and personalize the content and advertising you see.
Visit our Privacy Policy to learn more. By continuing to use the site, you agree to this use of cookies and data.
  • In Hungary
  • List of Countries
  • For 7 days
  • Water Temperature
  • Weather Map
  • News
  • Weather Widgets
  • user-avatar
    Login

    Hourly Weather Chernovo

    Today, 22 September, Sunday

    Time Temperature Precipitation Wind Pressure Humidity
    00:00 +5°C° 0 mm 3 mps 732 mmHg 97%
    01:00 +5°C° 0 mm 3 mps 732 mmHg 95%
    02:00 +5°C° 0 mm 4 mps 733 mmHg 96%
    03:00 +4°C° 0 mm 4 mps 733 mmHg 95%
    04:00 +4°C° 0 mm 4 mps 733 mmHg 94%
    05:00 +2°C° 0 mm 5 mps 733 mmHg 93%
    06:00 +3°C° 0.1 mm 4 mps 733 mmHg 92%
    07:00 +3°C° 0.1 mm 4 mps 733 mmHg 91%
    08:00 +3°C° 0.1 mm 4 mps 734 mmHg 90%
    09:00 +3°C° 0.1 mm 5 mps 734 mmHg 84%
    10:00 +5°C° 0.1 mm 5 mps 735 mmHg 78%
    11:00 +5°C° 0.1 mm 6 mps 735 mmHg 72%
    12:00 +5°C° 0.1 mm 6 mps 735 mmHg 68%
    13:00 +5°C° 0.1 mm 6 mps 736 mmHg 64%
    14:00 +7°C° 0.1 mm 6 mps 736 mmHg 59%
    15:00 +6°C° 0.1 mm 5 mps 736 mmHg 65%
    16:00 +5°C° 0.1 mm 4 mps 737 mmHg 70%
    17:00 +4°C° 0.1 mm 4 mps 737 mmHg 75%
    18:00 +3°C° 0 mm 4 mps 738 mmHg 81%
    19:00 +2°C° 0 mm 3 mps 738 mmHg 86%
    20:00 +1°C° 0 mm 3 mps 739 mmHg 92%
    21:00 +1°C° 0 mm 3 mps 739 mmHg 93%
    22:00 +1°C° 0 mm 3 mps 740 mmHg 95%
    23:00 0°C° 0 mm 3 mps 740 mmHg 96%

    Tomorrow, 23 September, Monday

    Time Temperature Precipitation Wind Pressure Humidity
    00:00 0°C° 0 mm 3 mps 741 mmHg 96%
    01:00 0°C° 0 mm 3 mps 741 mmHg 96%
    02:00 -1°C° 0 mm 3 mps 742 mmHg 97%
    03:00 -1°C° 0 mm 3 mps 742 mmHg 96%
    04:00 -1°C° 0 mm 3 mps 742 mmHg 96%
    05:00 -1°C° 0 mm 3 mps 742 mmHg 96%
    06:00 -1°C° 0 mm 3 mps 743 mmHg 93%
    07:00 0°C° 0 mm 3 mps 743 mmHg 89%
    08:00 +1°C° 0 mm 3 mps 743 mmHg 86%
    09:00 +1°C° 0 mm 4 mps 743 mmHg 77%
    10:00 +4°C° 0 mm 4 mps 744 mmHg 69%
    11:00 +5°C° 0 mm 4 mps 744 mmHg 60%
    12:00 +6°C° 0 mm 4 mps 743 mmHg 59%
    13:00 +6°C° 0 mm 4 mps 743 mmHg 58%
    14:00 +6°C° 0 mm 4 mps 743 mmHg 57%
    15:00 +5°C° 0 mm 4 mps 743 mmHg 62%
    16:00 +5°C° 0 mm 3 mps 743 mmHg 67%
    17:00 +4°C° 0 mm 3 mps 743 mmHg 71%
    18:00 +3°C° 0 mm 3 mps 743 mmHg 77%
    19:00 +3°C° 0 mm 2 mps 743 mmHg 83%
    20:00 +2°C° 0 mm 2 mps 743 mmHg 89%
    21:00 +2°C° 0 mm 2 mps 743 mmHg 90%
    22:00 +1°C° 0 mm 2 mps 743 mmHg 91%
    23:00 -1°C° 0 mm 2 mps 743 mmHg 93%

    Day after tomorrow, 24 September, Tuesday

    Time Temperature Precipitation Wind Pressure Humidity
    00:00 -1°C° 0 mm 2 mps 743 mmHg 92%
    01:00 +1°C° 0 mm 2 mps 743 mmHg 91%
    02:00 +1°C° 0 mm 2 mps 743 mmHg 90%
    03:00 +1°C° 0 mm 2 mps 743 mmHg 91%
    04:00 +1°C° 0 mm 2 mps 743 mmHg 91%
    05:00 +1°C° 0 mm 2 mps 743 mmHg 92%
    06:00 +2°C° 0 mm 2 mps 743 mmHg 91%
    07:00 +2°C° 0 mm 2 mps 743 mmHg 89%
    08:00 +3°C° 0 mm 2 mps 743 mmHg 88%
    09:00 +4°C° 0.1 mm 2 mps 743 mmHg 81%
    10:00 +5°C° 0.1 mm 2 mps 743 mmHg 74%
    11:00 +5°C° 0.1 mm 3 mps 743 mmHg 67%
    12:00 +7°C° 0.1 mm 3 mps 743 mmHg 64%
    13:00 +7°C° 0.1 mm 3 mps 743 mmHg 61%
    14:00 +8°C° 0.1 mm 3 mps 743 mmHg 58%
    15:00 +7°C° 0.1 mm 2 mps 743 mmHg 64%
    16:00 +6°C° 0.1 mm 2 mps 743 mmHg 69%
    17:00 +6°C° 0.1 mm 1 mps 743 mmHg 74%
    18:00 +5°C° 0 mm 1 mps 743 mmHg 80%
    19:00 +4°C° 0 mm 1 mps 743 mmHg 85%
    20:00 +1°C° 0 mm 0 mps 743 mmHg 90%
    21:00 +1°C° 0 mm 0 mps 743 mmHg 91%
    22:00 +2°C° 0 mm 1 mps 743 mmHg 91%
    23:00 +2°C° 0 mm 1 mps 743 mmHg 91%

    25 September, Wednesday

    Time Temperature Precipitation Wind Pressure Humidity
    00:00 +2°C° 0 mm 1 mps 743 mmHg 91%
    01:00 +2°C° 0 mm 1 mps 743 mmHg 91%
    02:00 +2°C° 0 mm 1 mps 743 mmHg 91%
    03:00 +2°C° 0 mm 1 mps 743 mmHg 91%
    04:00 +2°C° 0 mm 1 mps 743 mmHg 91%
    05:00 +1°C° 0 mm 1 mps 742 mmHg 92%
    06:00 +3°C° 0 mm 1 mps 742 mmHg 86%
    07:00 +4°C° 0 mm 1 mps 742 mmHg 81%
    08:00 +5°C° 0 mm 1 mps 742 mmHg 76%
    09:00 +6°C° 0 mm 1 mps 743 mmHg 70%
    10:00 +8°C° 0 mm 1 mps 743 mmHg 64%
    11:00 +9°C° 0 mm 1 mps 743 mmHg 58%
    12:00 +10°C° 0 mm 1 mps 743 mmHg 57%
    13:00 +10°C° 0 mm 1 mps 742 mmHg 57%
    14:00 +10°C° 0 mm 1 mps 742 mmHg 56%
    15:00 +9°C° 0 mm 1 mps 742 mmHg 62%
    16:00 +8°C° 0 mm 1 mps 742 mmHg 68%
    17:00 +7°C° 0 mm 1 mps 742 mmHg 73%
    18:00 +6°C° 0 mm 1 mps 742 mmHg 79%
    19:00 +5°C° 0 mm 1 mps 742 mmHg 84%
    20:00 +4°C° 0 mm 1 mps 742 mmHg 89%
    21:00 +3°C° 0 mm 1 mps 742 mmHg 90%
    22:00 +3°C° 0 mm 1 mps 743 mmHg 90%
    23:00 +3°C° 0 mm 1 mps 743 mmHg 91%

    26 September, Thursday

    Time Temperature Precipitation Wind Pressure Humidity
    00:00 +3°C° 0 mm 1 mps 743 mmHg 92%
    01:00 +3°C° 0 mm 1 mps 742 mmHg 93%
    02:00 +3°C° 0 mm 1 mps 742 mmHg 94%
    03:00 +3°C° 0 mm 1 mps 742 mmHg 95%
    04:00 +3°C° 0 mm 1 mps 742 mmHg 95%
    05:00 +1°C° 0 mm 2 mps 742 mmHg 96%
    06:00 +2°C° 0 mm 2 mps 742 mmHg 93%
    07:00 +3°C° 0 mm 2 mps 742 mmHg 90%
    08:00 +3°C° 0 mm 3 mps 742 mmHg 86%
    09:00 +4°C° 0 mm 3 mps 741 mmHg 84%
    10:00 +5°C° 0 mm 3 mps 741 mmHg 81%
    11:00 +7°C° 0 mm 3 mps 741 mmHg 78%
    12:00 +7°C° 0.1 mm 3 mps 741 mmHg 79%
    13:00 +7°C° 0.1 mm 3 mps 741 mmHg 80%
    14:00 +7°C° 0.1 mm 3 mps 740 mmHg 80%
    15:00 +6°C° 0.1 mm 2 mps 740 mmHg 83%
    16:00 +6°C° 0.1 mm 2 mps 739 mmHg 86%
    17:00 +6°C° 0.1 mm 2 mps 739 mmHg 90%
    18:00 +5°C° 0 mm 2 mps 739 mmHg 91%
    19:00 +5°C° 0 mm 2 mps 739 mmHg 92%
    20:00 +5°C° 0 mm 2 mps 739 mmHg 93%
    21:00 +5°C° 0 mm 2 mps 738 mmHg 93%
    22:00 +5°C° 0 mm 2 mps 738 mmHg 94%
    23:00 +5°C° 0 mm 2 mps 738 mmHg 94%

    27 September, Friday

    Time Temperature Precipitation Wind Pressure Humidity
    00:00 +5°C° 0 mm 2 mps 738 mmHg 94%
    01:00 +5°C° 0 mm 2 mps 738 mmHg 94%
    02:00 +3°C° 0 mm 3 mps 738 mmHg 95%
    03:00 +3°C° 0 mm 3 mps 738 mmHg 95%
    04:00 +2°C° 0 mm 3 mps 738 mmHg 95%
    05:00 +2°C° 0 mm 3 mps 738 mmHg 96%
    06:00 +2°C° 0 mm 3 mps 738 mmHg 92%
    07:00 +3°C° 0 mm 3 mps 738 mmHg 88%
    08:00 +3°C° 0 mm 3 mps 739 mmHg 84%
    09:00 +5°C° 0 mm 3 mps 739 mmHg 76%
    10:00 +7°C° 0 mm 3 mps 739 mmHg 68%
    11:00 +9°C° 0 mm 3 mps 740 mmHg 60%
    12:00 +9°C° 0 mm 3 mps 740 mmHg 59%
    13:00 +10°C° 0 mm 3 mps 740 mmHg 58%
    14:00 +10°C° 0 mm 3 mps 740 mmHg 57%
    15:00 +9°C° 0 mm 3 mps 740 mmHg 63%
    16:00 +8°C° 0 mm 3 mps 741 mmHg 70%
    17:00 +7°C° 0 mm 2 mps 741 mmHg 76%
    18:00 +7°C° 0 mm 2 mps 741 mmHg 79%
    19:00 +6°C° 0 mm 2 mps 742 mmHg 83%
    20:00 +5°C° 0 mm 2 mps 742 mmHg 86%
    21:00 +5°C° 0 mm 2 mps 743 mmHg 88%
    22:00 +4°C° 0 mm 2 mps 743 mmHg 89%
    23:00 +3°C° 0 mm 2 mps 744 mmHg 90%
    Show more